Weather History for Flagstaff, AZ

Change the Weather History Date:

Saturday, April 13, 2013

  Actual Average Record
Temperature  
Mean Temperature 46 °F 43 °F  
Max Temperature 65 °F 57 °F 75 °F (1962)
Min Temperature 27 °F 28 °F 0 °F (1965)
Degree Days  
Heating Degree Days 19 22  
Month to date heating degree days 282 310  
Since 1 July heating degree days 5918 6017  
Cooling Degree Days 0 0  
Month to date cooling degree days 0 0  
Year to date cooling degree days 0 0  
Moisture  
Dew Point 20 °F    
Average Humidity 49    
Maximum Humidity 81    
Minimum Humidity 16    
Precipitation  
Precipitation 0.00 in 0.04 in 0.65 in (1976)
Month to date precipitation 0.12 0.60  
Year to date precipitation 5.00 6.93  
Snow  
Snow 0.00 in 0.20 in 5.40 in (1976)
Month to date snowfall 1.4 3.7  
Since 1 July snowfall 69.7 97.6  
Snow Depth 0.00 in    
Sea Level Pressure  
Sea Level Pressure 29.76 in    
Wind  
Wind Speed 14 mph (SW)    
Max Wind Speed 32 mph    
Max Gust Speed 41 mph    
Visibility 10 miles    
Events      
T = Trace of Precipitation, MM = Missing Value Source: NWS Daily Summary

Daily Weather History Graph

Daily Weather History Graph

Search for Another Location

Airport:

Trip Planner

Search our weather history database for the weather conditions in past years. The results will help you decide how hot, cold, wet, or windy it might be!

Date:

Astronomy

Apr. 13, 2013 Rise Set
Actual Time 5:56 AM MST 6:58 PM MST
Civil Twilight 5:30 AM MST 7:24 PM MST
Nautical Twilight 4:59 AM MST 7:55 PM MST
Astronomical Twilight 4:28 AM MST 8:27 PM MST
Moon 7:57 AM MST (4/13) 10:18 PM MST (4/13)
Length of Visible Light 13h 53m
Length of Day
13h 01m
Waxing Crescent, 11% of the Moon is Illuminated
Apr 13
Waxing Crescent
Apr 18
First Quarter
Apr 25
Full
May 2
Last Quarter
May 9
New

Hourly Weather History & Observations

Time (MST) Temp. Windchill Dew Point Humidity Pressure Visibility Wind Dir Wind Speed Gust Speed Precip Events Conditions
12:57 AM 37.0 °F - 25.0 °F 62% 29.85 in 10.0 mi Calm Calm - N/A   Clear
1:57 AM 32.0 °F - 24.1 °F 73% 29.86 in 10.0 mi Calm Calm - N/A   Clear
2:57 AM 30.0 °F - 23.0 °F 75% 29.86 in 10.0 mi Calm Calm - N/A   Clear
3:57 AM 28.0 °F - 21.9 °F 78% 29.85 in 10.0 mi Calm Calm - N/A   Clear
4:57 AM 27.0 °F - 21.9 °F 81% 29.88 in 10.0 mi Calm Calm - N/A   Clear
5:57 AM 30.0 °F 26.5 °F 21.9 °F 72% 29.88 in 10.0 mi West 3.5 mph - N/A   Clear
6:57 AM 37.0 °F 34.5 °F 26.1 °F 65% 29.86 in 10.0 mi SSW 3.5 mph - N/A   Clear
7:57 AM 48.9 °F - 21.9 °F 35% 29.84 in 10.0 mi SSW 4.6 mph - N/A   Clear
8:57 AM 55.0 °F - 21.0 °F 27% 29.82 in 10.0 mi WSW 11.5 mph - N/A   Clear
9:57 AM 57.9 °F - 21.0 °F 24% 29.79 in 10.0 mi WSW 15.0 mph 21.9 mph N/A   Clear
10:57 AM 59.0 °F - 19.0 °F 21% 29.77 in 10.0 mi SW 19.6 mph 31.1 mph N/A   Clear
11:57 AM 60.1 °F - 19.0 °F 20% 29.76 in 10.0 mi WSW 18.4 mph 27.6 mph N/A   Clear
12:57 PM 64.0 °F - 21.0 °F 19% 29.73 in 10.0 mi SW 25.3 mph 35.7 mph N/A   Clear
1:57 PM 64.0 °F - 17.1 °F 16% 29.73 in 10.0 mi SW 31.1 mph 40.3 mph N/A   Clear
2:57 PM 62.1 °F - 17.1 °F 18% 29.74 in 10.0 mi SW 23.0 mph 34.5 mph N/A   Clear
3:57 PM 63.0 °F - 19.0 °F 18% 29.73 in 10.0 mi SW 24.2 mph 40.3 mph N/A   Clear
4:57 PM 60.1 °F - 17.1 °F 19% 29.73 in 10.0 mi WSW 21.9 mph 32.2 mph N/A   Clear
5:57 PM 57.9 °F - 18.0 °F 21% 29.70 in 10.0 mi WSW 23.0 mph 33.4 mph N/A   Clear
6:57 PM 55.9 °F - 21.0 °F 26% 29.67 in 10.0 mi WSW 19.6 mph 31.1 mph N/A   Clear
7:57 PM 54.0 °F - 17.1 °F 23% 29.64 in 10.0 mi WSW 20.7 mph 32.2 mph N/A   Clear
8:57 PM 53.1 °F - 17.1 °F 24% 29.62 in 10.0 mi SW 19.6 mph 32.2 mph N/A   Clear
9:57 PM 52.0 °F - 18.0 °F 26% 29.63 in 10.0 mi WSW 18.4 mph 25.3 mph N/A   Clear
10:57 PM 50.0 °F - 19.9 °F 31% 29.62 in 10.0 mi SW 16.1 mph 27.6 mph N/A   Clear
11:57 PM 50.0 °F - 21.0 °F 32% 29.61 in 10.0 mi WSW 21.9 mph 32.2 mph N/A   Clear